FW7298 Weather Reports


Display with metric or nautical units.
time (UTC)temp
F
wind
direction
speed
MPH
gust
MPH
rain 1hr
in
rain 24hr
in
rain mn
in
humidity
%
barometer
mb
20260507124448 55 14 0.0 0.0 0.00 0.37 0.37 86 1013.5
20260507123947 54 8 0.0 0.0 0.00 0.37 0.37 85 1013.5
20260507123444 54 7 0.0 0.0 0.00 0.37 0.37 85 1013.5
20260507122940 54 39 0.0 0.0 0.00 0.37 0.37 84 1013.5
20260507122436 54 9 0.0 0.0 0.00 0.37 0.37 86 1013.4
20260507121932 54 16 0.0 0.0 0.00 0.37 0.37 87 1013.3
20260507121427 53 20 0.0 0.0 0.00 0.37 0.37 87 1013.5
20260507120924 54 38 0.0 0.0 0.00 0.37 0.37 89 1013.2
20260507120420 54 348 0.0 0.0 0.00 0.37 0.37 89 1013.4
20260507115917 53 48 1.0 1.0 0.00 0.37 0.37 89 1013.6
20260507115413 53 354 1.0 1.0 0.00 0.37 0.37 90 1013.6
20260507114909 54 18 0.0 0.0 0.00 0.37 0.37 91 1013.5
20260507114406 53 18 0.0 0.0 0.00 0.37 0.37 92 1013.4
20260507113903 53 18 0.0 0.0 0.00 0.37 0.37 92 1013.2
20260507113400 53 36 0.0 0.0 0.00 0.37 0.37 92 1012.9
20260507112857 53 36 0.0 0.0 0.00 0.37 0.37 92 1013.2
20260507112355 53 36 0.0 0.0 0.00 0.37 0.37 92 1013.0
20260507111852 53 46 0.0 0.0 0.00 0.37 0.37 92 1012.9
20260507111349 53 43 0.0 0.0 0.00 0.37 0.37 93 1012.9
20260507110845 53 38 0.0 0.0 0.00 0.37 0.37 93 1013.2
20260507110341 53 27 0.0 0.0 0.00 0.37 0.37 93 1013.1
20260507105838 53 25 0.0 0.0 0.00 0.37 0.37 93 1013.0
20260507105335 53 26 0.0 0.0 0.00 0.37 0.37 93 1013.0
20260507104832 53 27 0.0 0.0 0.00 0.37 0.37 93 1013.0
20260507104328 53 19 0.0 0.0 0.00 0.37 0.37 93 1013.0
20260507103824 54 18 0.0 0.0 0.00 0.37 0.37 94 1012.5
20260507103321 54 26 0.0 0.0 0.00 0.37 0.37 93 1012.7
20260507102817 54 32 0.0 0.0 0.00 0.37 0.37 93 1012.7
20260507102314 54 39 0.0 0.0 0.00 0.37 0.37 93 1012.6
20260507101810 54 38 0.0 0.0 0.00 0.37 0.37 93 1012.4
20260507101305 54 37 0.0 0.0 0.00 0.37 0.37 93 1012.3
20260507100802 54 35 0.0 0.0 0.00 0.37 0.37 93 1012.7
20260507100301 54 32 0.0 0.0 0.00 0.37 0.37 93 1012.7
20260507095759 54 32 0.0 0.0 0.00 0.37 0.37 93 1012.7
20260507095254 54 34 0.0 0.0 0.00 0.37 0.37 93 1012.5
20260507094751 54 34 0.0 0.0 0.00 0.37 0.37 93 1012.6
20260507094248 54 25 0.0 0.0 0.00 0.37 0.37 93 1012.4
20260507093745 54 31 0.0 0.0 0.00 0.37 0.37 93 1012.3
20260507093243 54 32 0.0 0.0 0.00 0.37 0.37 93 1012.3
20260507092741 54 34 0.0 0.0 0.00 0.37 0.37 93 1012.2
20260507092237 54 19 0.0 0.0 0.00 0.37 0.37 93 1012.6
20260507091734 54 25 0.0 0.0 0.00 0.37 0.37 93 1012.2
20260507091230 54 23 0.0 0.0 0.00 0.37 0.37 93 1012.0
20260507090726 54 14 0.0 0.0 0.00 0.37 0.37 93 1012.3
20260507090222 54 14 0.0 0.0 0.00 0.37 0.37 93 1012.2
20260507085720 55 16 0.0 0.0 0.00 0.37 0.37 93 1012.1
20260507085217 54 16 0.0 0.0 0.00 0.37 0.37 93 1012.2
20260507084713 54 14 0.0 0.0 0.00 0.37 0.37 93 1012.4
20260507084210 54 11 0.0 0.0 0.00 0.37 0.37 93 1012.2
20260507083707 54 12 0.0 0.0 0.00 0.37 0.37 93 1012.0
20260507083204 54 8 0.0 0.0 0.00 0.37 0.37 93 1012.4
20260507082700 54 1 0.0 0.0 0.00 0.37 0.37 93 1012.2
20260507082156 54 31 0.0 0.0 0.00 0.37 0.37 93 1012.0
20260507081653 54 5 0.0 0.0 0.00 0.37 0.37 92 1012.3
20260507081149 54 8 0.0 0.0 0.00 0.37 0.37 93 1012.1
20260507080646 55 3 1.0 1.0 0.00 0.37 0.37 92 1012.0
20260507080143 54 15 0.0 0.0 0.00 0.37 0.37 92 1012.0
20260507075642 55 46 0.0 0.0 0.00 0.37 0.37 92 1011.6
20260507075139 55 347 0.0 1.0 0.00 0.37 0.37 92 1011.6
20260507074636 54 6 0.0 0.0 0.00 0.37 0.37 92 1011.7
20260507074134 54 306 0.0 1.0 0.00 0.37 0.37 92 1011.8
20260507073630 54 343 1.0 2.0 0.00 0.37 0.37 92 1011.6
20260507073126 54 358 0.0 0.0 0.00 0.37 0.37 92 1011.6
20260507072624 54 306 1.0 1.0 0.00 0.37 0.37 92 1011.2
20260507072121 54 355 0.0 0.0 0.00 0.37 0.37 93 1011.3
20260507071619 54 352 0.0 1.0 0.00 0.37 0.37 93 1011.4
20260507071115 54 335 1.0 1.0 0.00 0.37 0.37 93 1011.6
20260507070612 54 353 1.0 2.0 0.00 0.37 0.37 93 1011.3
20260507070109 55 310 3.0 3.0 0.00 0.37 0.37 94 1011.2
20260507065605 55 312 1.0 2.0 0.00 0.37 0.37 94 1011.2
20260507065102 55 348 0.0 1.0 0.00 0.37 0.37 94 1011.4
20260507064600 55 9 1.0 1.0 0.00 0.37 0.37 95 1011.4
20260507064059 55 337 2.0 2.0 0.00 0.37 0.37 95 1011.2
20260507063555 55 341 2.0 2.0 0.00 0.37 0.37 95 1011.4
20260507063053 55 13 0.0 0.0 0.00 0.37 0.37 95 1011.2
20260507062549 56 15 0.0 0.0 0.07 0.37 0.37 95 1011.5
20260507062047 56 353 1.0 2.0 0.07 0.37 0.37 95 1011.6
20260507061544 56 311 0.0 1.0 0.00 0.36 0.36 95 1011.2
20260507061042 56 56 2.0 2.0 0.00 0.36 0.36 95 1011.3
20260507060540 56 359 1.0 2.0 0.00 0.36 0.36 95 1011.1
20260507060037 57 295 2.0 2.0 0.00 0.36 0.36 95 1011.2
20260507055531 57 346 1.0 2.0 0.00 0.36 0.36 95 1010.9
20260507055028 57 21 0.0 0.0 0.00 0.36 0.36 95 1010.8
20260507054524 57 340 2.0 2.0 0.05 0.36 0.36 95 1011.1
20260507054021 57 198 2.0 2.0 0.05 0.36 0.36 95 1011.1
20260507053519 57 343 1.0 1.0 0.00 0.35 0.35 95 1011.3
20260507053018 57 41 0.0 0.0 0.07 0.35 0.35 94 1011.4
20260507052515 57 28 0.0 1.0 0.12 0.35 0.35 94 1011.3
20260507052011 57 3 0.0 1.0 0.05 0.34 0.34 94 1010.8
20260507051509 57 322 1.0 1.0 0.05 0.34 0.34 94 1011.4
20260507051006 57 182 1.0 1.0 0.07 0.33 0.33 94 1011.3
20260507050502 58 29 0.0 0.0 0.07 0.33 0.33 94 1011.3
20260507045959 58 330 2.0 2.0 0.00 0.32 0.32 93 1011.5
20260507045455 58 7 1.0 1.0 0.05 0.32 0.32 93 1011.1
20260507044953 57 65 0.0 0.0 0.12 0.32 0.32 93 1011.4
20260507044449 58 341 0.0 0.0 0.17 0.32 0.32 93 1011.5
20260507043946 58 292 1.0 2.0 0.35 0.30 0.30 92 1011.2
20260507043442 58 14 0.0 0.0 0.71 0.28 0.28 92 1011.6
20260507042938 58 352 0.0 0.0 1.13 0.25 0.25 91 1011.8
20260507042436 59 340 1.0 1.0 0.78 0.17 0.17 90 1011.7
20260507041931 60 358 1.0 1.0 0.24 0.06 0.06 87 1011.5
20260507041428 60 278 1.0 1.0 0.19 0.04 0.04 85 1011.3
20260507040925 62 332 3.0 5.0 0.12 0.02 0.02 82 1011.2
20260507040421 62 16 2.0 2.0 0.00 0.00 0.00 79 1011.1
20260507035917 63 291 3.0 5.0 0.00 0.24 0.24 78 1011.2
20260507035414 63 62 1.0 1.0 0.00 0.24 0.24 78 1011.1
20260507034910 63 290 3.0 5.0 0.00 0.24 0.24 78 1010.8
20260507034407 64 16 0.0 1.0 0.00 0.24 0.24 79 1010.7
20260507033906 64 295 2.0 2.0 0.00 0.24 0.24 80 1010.8
20260507033403 64 356 2.0 2.0 0.00 0.24 0.24 81 1011.0
20260507032900 65 305 3.0 3.0 0.00 0.24 0.24 82 1010.9
20260507032356 65 294 1.0 2.0 0.00 0.24 0.24 83 1010.7
20260507031853 65 357 0.0 0.0 0.00 0.24 0.24 84 1010.7
20260507031349 65 345 1.0 1.0 0.00 0.24 0.24 83 1010.8
20260507030846 66 337 1.0 1.0 0.00 0.24 0.24 84 1010.5
20260507030343 66 343 1.0 1.0 0.00 0.24 0.24 84 1010.0
20260507025840 66 295 1.0 1.0 0.00 0.24 0.24 83 1010.0
20260507025337 66 342 0.0 0.0 0.00 0.24 0.24 83 1010.2
20260507024835 66 279 2.0 2.0 0.00 0.24 0.24 83 1010.1
20260507024332 66 317 2.0 2.0 0.00 0.24 0.24 83 1010.7
20260507023828 66 318 1.0 2.0 0.00 0.24 0.24 83 1010.5
20260507023325 66 19 1.0 1.0 0.00 0.24 0.24 83 1010.1
20260507022822 66 331 1.0 2.0 0.00 0.24 0.24 85 1010.0
20260507022319 66 14 1.0 1.0 0.00 0.24 0.24 87 1010.1
20260507021815 66 5 1.0 1.0 0.00 0.24 0.24 88 1009.7
20260507021311 66 29 0.0 1.0 0.00 0.24 0.24 89 1010.0
20260507020809 66 284 2.0 2.0 0.00 0.24 0.24 90 1009.7
20260507020305 66 44 0.0 0.0 0.00 0.24 0.24 90 1009.6
20260507015802 66 51 0.0 0.0 0.00 0.24 0.24 90 1009.9
20260507015300 67 357 0.0 0.0 0.00 0.24 0.24 89 1010.2
20260507014756 67 342 0.0 0.0 0.00 0.24 0.24 88 1010.0
20260507014253 67 55 0.0 0.0 0.00 0.24 0.24 88 1010.0
20260507013749 67 55 0.0 0.0 0.00 0.24 0.24 87 1009.8
20260507013247 67 56 0.0 0.0 0.00 0.24 0.24 87 1009.9
20260507012744 67 55 0.0 0.0 0.00 0.24 0.24 86 1010.2
20260507012244 67 66 0.0 0.0 0.00 0.24 0.24 86 1009.7
20260507011743 67 66 0.0 0.0 0.00 0.24 0.24 86 1009.8
20260507011239 68 64 0.0 0.0 0.00 0.24 0.24 85 1010.0
20260507010738 68 65 0.0 0.0 0.00 0.24 0.24 85 1010.2
20260507010235 68 65 0.0 0.0 0.00 0.24 0.24 85 1010.4
20260507005733 68 60 0.0 0.0 0.00 0.24 0.24 85 1010.3
20260507005229 67 60 0.0 0.0 0.00 0.24 0.24 85 1010.1
20260507004725 68 59 0.0 0.0 0.00 0.24 0.24 85 1009.8
20260507004223 68 58 0.0 0.0 0.00 0.24 0.24 85 1010.1
20260507003719 68 58 0.0 0.0 0.00 0.24 0.24 84 1009.7
20260507003214 68 59 0.0 0.0 0.00 0.24 0.24 84 1009.8
20260507002711 68 56 0.0 0.0 0.00 0.24 0.24 84 1009.8
20260507002207 68 3 0.0 0.0 0.00 0.24 0.24 84 1009.9
20260507001704 68 349 0.0 0.0 0.00 0.24 0.24 83 1009.8
20260507001201 68 22 0.0 0.0 0.00 0.24 0.24 83 1009.7
20260507000657 68 26 0.0 0.0 0.00 0.24 0.24 83 1009.7
20260507000153 68 43 0.0 0.0 0.00 0.24 0.24 82 1009.4
20260506235650 69 68 0.0 0.0 0.00 0.24 0.24 82 1009.4
20260506235145 69 102 0.0 0.0 0.00 0.24 0.24 82 1009.2
20260506234643 69 22 0.0 0.0 0.00 0.24 0.24 82 1009.3
20260506234140 69 51 0.0 0.0 0.00 0.24 0.24 83 1009.2
20260506233637 69 34 0.0 0.0 0.00 0.24 0.24 82 1009.0
20260506233134 69 64 0.0 0.0 0.00 0.24 0.24 82 1008.9
20260506232630 69 65 0.0 0.0 0.00 0.24 0.24 82 1009.0
20260506232125 69 341 0.0 1.0 0.00 0.24 0.24 82 1008.8
20260506231623 69 50 0.0 0.0 0.00 0.24 0.24 82 1009.1
20260506231121 69 28 0.0 0.0 0.00 0.24 0.24 82 1008.7
20260506230617 69 24 0.0 0.0 0.00 0.24 0.24 81 1008.9
20260506230115 69 15 0.0 1.0 0.00 0.24 0.24 81 1008.8
20260506225611 69 310 0.0 0.0 0.00 0.24 0.24 82 1009.0
20260506225108 69 51 2.0 2.0 0.00 0.24 0.24 81 1008.9
20260506224604 69 3 0.0 0.0 0.00 0.24 0.24 80 1008.7
20260506224101 69 172 0.0 0.0 0.00 0.24 0.24 81 1008.7
20260506223557 70 79 0.0 1.0 0.00 0.24 0.24 80 1008.6
20260506223053 70 356 1.0 1.0 0.00 0.24 0.24 79 1008.7
20260506222550 70 22 0.0 0.0 0.00 0.24 0.24 79 1009.1
20260506222047 69 54 0.0 0.0 0.00 0.24 0.24 79 1008.8
20260506221545 69 24 1.0 1.0 0.00 0.24 0.24 79 1009.2
20260506221042 69 240 0.0 1.0 0.00 0.24 0.24 79 1009.0
20260506220538 70 138 0.0 0.0 0.00 0.24 0.24 79 1008.9
20260506220033 70 3 1.0 1.0 0.00 0.24 0.24 79 1008.7
20260506215531 69 82 0.0 0.0 0.00 0.24 0.24 79 1009.0
20260506215026 69 42 0.0 0.0 0.00 0.24 0.24 80 1008.8
20260506214524 69 64 0.0 0.0 0.00 0.24 0.24 79 1008.9
20260506214021 69 177 0.0 0.0 0.00 0.24 0.24 79 1009.1
20260506213519 69 301 0.0 0.0 0.00 0.24 0.24 79 1008.9
20260506213016 69 223 1.0 1.0 0.00 0.24 0.24 79 1008.8
20260506212512 69 39 2.0 5.0 0.00 0.24 0.24 79 1008.9
20260506212007 69 185 0.0 0.0 0.00 0.24 0.24 80 1009.0
20260506211503 69 56 0.0 0.0 0.00 0.24 0.24 80 1009.0
20260506211001 69 355 0.0 1.0 0.00 0.24 0.24 80 1009.0
20260506210456 69 216 1.0 1.0 0.00 0.24 0.24 80 1009.0
20260506205953 69 207 0.0 1.0 0.00 0.24 0.24 81 1008.9
20260506205449 69 335 0.0 1.0 0.00 0.24 0.24 80 1008.8
20260506204946 69 351 2.0 2.0 0.00 0.24 0.24 79 1008.9
20260506204444 69 64 0.0 0.0 0.00 0.24 0.24 80 1008.7
20260506203941 69 93 0.0 0.0 0.00 0.24 0.24 80 1008.5
20260506203438 69 343 1.0 1.0 0.00 0.24 0.24 80 1008.8
20260506202935 68 18 1.0 2.0 0.00 0.24 0.24 80 1008.6
20260506202432 69 339 2.0 2.0 0.00 0.24 0.24 79 1008.7
20260506201929 69 187 0.0 1.0 0.00 0.24 0.24 80 1008.6
20260506201426 68 232 2.0 2.0 0.00 0.24 0.24 80 1008.8
20260506200923 68 108 1.0 1.0 0.00 0.24 0.24 82 1008.7
20260506200419 68 311 1.0 2.0 0.00 0.24 0.24 81 1008.5
20260506195916 68 321 3.0 3.0 0.00 0.24 0.24 81 1008.6
20260506195413 68 53 2.0 5.0 0.00 0.24 0.24 81 1008.7
20260506194909 68 18 0.0 2.0 0.00 0.24 0.24 82 1008.7
20260506194406 68 13 0.0 1.0 0.00 0.24 0.24 82 1008.9
20260506193904 67 52 0.0 0.0 0.00 0.24 0.24 83 1008.8
20260506193400 67 231 2.0 3.0 0.00 0.24 0.24 82 1009.0
20260506192856 67 15 1.0 2.0 0.00 0.24 0.24 83 1009.0
20260506192354 67 170 1.0 1.0 0.00 0.24 0.24 82 1009.1
20260506191850 67 115 0.0 1.0 0.00 0.24 0.24 84 1008.8
20260506191347 67 338 0.0 1.0 0.00 0.24 0.24 82 1009.3
20260506190844 67 87 2.0 3.0 0.00 0.24 0.24 83 1009.4
20260506190340 67 51 2.0 3.0 0.00 0.24 0.24 83 1009.4
20260506185837 66 44 0.0 0.0 0.00 0.24 0.24 83 1009.5
20260506185334 67 35 2.0 2.0 0.00 0.24 0.24 84 1009.4
20260506184831 66 328 2.0 3.0 0.00 0.24 0.24 83 1009.6
20260506184328 66 135 0.0 0.0 0.00 0.24 0.24 83 1009.7
20260506183826 66 63 0.0 1.0 0.00 0.24 0.24 84 1009.5
20260506183320 66 297 0.0 1.0 0.00 0.24 0.24 84 1009.8
20260506182818 66 354 1.0 2.0 0.00 0.24 0.24 85 1009.6
20260506182315 66 39 3.0 3.0 0.00 0.24 0.24 84 1009.3
20260506181813 66 136 3.0 3.0 0.00 0.24 0.24 84 1009.6
20260506181310 66 266 1.0 2.0 0.00 0.24 0.24 84 1010.0
20260506180808 65 168 1.0 1.0 0.00 0.24 0.24 84 1009.8
20260506180303 65 216 2.0 2.0 0.00 0.24 0.24 84 1009.8
20260506175800 65 26 0.0 1.0 0.00 0.24 0.24 85 1009.7
20260506175257 66 10 0.0 0.0 0.00 0.24 0.24 84 1009.9
20260506174754 65 44 2.0 3.0 0.00 0.24 0.24 84 1009.7
20260506174251 65 143 1.0 1.0 0.00 0.24 0.24 85 1009.6
20260506173749 65 291 0.0 1.0 0.00 0.24 0.24 85 1009.7
20260506173246 64 132 0.0 1.0 0.00 0.24 0.24 86 1009.9
20260506172742 64 220 1.0 1.0 0.00 0.24 0.24 87 1010.2
20260506172239 63 107 0.0 1.0 0.00 0.24 0.24 88 1010.1
20260506171737 63 255 1.0 1.0 0.00 0.24 0.24 90 1010.0
20260506171233 63 39 0.0 0.0 0.00 0.24 0.24 91 1009.9
20260506170731 63 278 1.0 1.0 0.00 0.24 0.24 91 1010.2
20260506170222 62 201 2.0 3.0 0.00 0.24 0.24 92 1010.2
20260506165720 62 167 2.0 3.0 0.00 0.24 0.24 93 1010.4
20260506165217 62 175 1.0 2.0 0.00 0.24 0.24 93 1010.3
20260506164714 62 4 3.0 3.0 0.00 0.24 0.24 94 1010.3
20260506164211 62 61 3.0 5.0 0.00 0.24 0.24 94 1010.3
20260506163707 62 16 0.0 1.0 0.00 0.24 0.24 94 1010.4
20260506163202 62 4 2.0 2.0 0.00 0.24 0.24 95 1010.4
20260506162659 62 26 0.0 0.0 0.00 0.24 0.24 95 1010.2
20260506162156 62 66 1.0 1.0 0.00 0.24 0.24 95 1010.5
20260506161653 61 114 1.0 1.0 0.00 0.24 0.24 95 1010.6
20260506161150 61 19 2.0 3.0 0.00 0.24 0.24 95 1010.6
20260506160648 61 51 3.0 5.0 0.00 0.24 0.24 95 1010.8
20260506160145 61 161 0.0 0.0 0.00 0.24 0.24 95 1010.5
20260506155643 61 87 0.0 0.0 0.00 0.24 0.24 95 1010.5
20260506155140 62 26 0.0 0.0 0.00 0.24 0.24 95 1010.8
20260506153242 61 92 0.0 0.0 0.00 0.24 0.24 95 1010.5
20260506152739 62 65 1.0 1.0 0.00 0.24 0.24 95 1010.8
20260506152236 62 60 0.0 0.0 0.00 0.24 0.24 95 1011.0
20260506151735 61 42 0.0 0.0 0.00 0.24 0.24 95 1010.6
20260506151231 61 80 0.0 1.0 0.00 0.24 0.24 95 1010.7
20260506150728 61 138 0.0 1.0 0.00 0.24 0.24 95 1010.8
20260506150225 60 29 1.0 2.0 0.00 0.24 0.24 95 1011.2
20260506145722 60 82 0.0 0.0 0.12 0.24 0.24 95 1011.1
20260506145218 60 68 0.0 0.0 0.19 0.24 0.24 94 1011.1
20260506144716 61 311 0.0 0.0 0.12 0.23 0.23 94 1011.3
20260506144213 61 134 0.0 0.0 0.17 0.21 0.21 94 1011.4
20260506143710 61 204 0.0 1.0 0.19 0.20 0.20 94 1011.4
20260506143208 61 161 0.0 1.0 0.07 0.18 0.18 94 1011.4
20260506142706 61 142 1.0 1.0 0.00 0.17 0.17 94 1011.3
20260506142204 61 43 0.0 0.0 0.05 0.17 0.17 94 1011.1
20260506141701 61 34 0.0 0.0 0.05 0.17 0.17 94 1011.1
20260506141159 61 41 0.0 0.0 0.00 0.16 0.16 94 1011.2
20260506140656 61 28 0.0 1.0 0.07 0.16 0.16 94 1011.1
20260506140153 61 48 0.0 0.0 0.19 0.16 0.16 93 1011.2
20260506135650 60 65 0.0 0.0 0.19 0.15 0.15 93 1011.3
20260506135147 60 49 0.0 0.0 0.12 0.13 0.13 93 1011.1
20260506134643 61 65 0.0 0.0 0.12 0.12 0.12 93 1011.3
20260506134139 61 35 0.0 0.0 0.19 0.11 0.11 92 1011.4
20260506133637 61 43 0.0 0.0 0.17 0.10 0.10 92 1011.3
20260506133134 61 51 0.0 0.0 0.12 0.08 0.08 92 1011.4
20260506132631 61 60 0.0 0.0 0.12 0.07 0.07 91 1011.5
20260506132128 61 75 0.0 0.0 0.05 0.06 0.06 91 1011.5
20260506131625 61 352 2.0 2.0 0.12 0.06 0.06 91 1011.7
20260506131121 61 51 1.0 1.0 0.12 0.05 0.05 90 1011.3
20260506130619 61 15 0.0 0.0 0.12 0.04 0.04 90 1011.5
20260506130116 62 139 0.0 0.0 0.07 0.03 0.03 89 1011.4
20260506125614 62 44 1.0 1.0 0.00 0.02 0.02 89 1011.5
20260506125111 62 49 0.0 0.0 0.00 0.02 0.02 89 1011.2